SB KEPS @ AMSAT $ORB07151.N 2Line Orbital Elements 07151.AMSAT
HR AMSAT ORBITAL ELEMENTS FOR AMATEUR SATELLITES IN NASA FORMAT FROM WA5QGD FORT WORTH,TX May 31, 2007 Send SUBSCRIBE KEPS/UNSUBSCRIBE KEPS to [email protected] only BID: ORB07151.N
DECODE 2-LINE ELSETS WITH THE FOLLOWING KEY: 1 AAAAAU 00 0 0 BBBBB.BBBBBBBB .CCCCCCCC 00000-0 00000-0 0 DDDZ 2 AAAAA EEE.EEEE FFF.FFFF GGGGGGG HHH.HHHH III.IIII JJ.JJJJJJJJKKKKKZ KEY: A-CATALOGNUM B-EPOCHTIME C-DECAY D-ELSETNUM E-INCLINATION F-RAAN G-ECCENTRICITY H-ARGPERIGEE I-MNANOM J-MNMOTION K-ORBITNUM Z-CHECKSUM
TO ALL RADIO AMATEURS BT
AO-07 1 07530U 74089B 07150.74366769 -.00000028 00000-0 10000-3 0 08897 2 07530 101.5146 189.2642 0011665 290.5279 069.4536 12.53572515488931 AO-10 1 14129U 83058B 07150.57122081 -.00000109 00000-0 10000-3 0 03843 2 14129 026.5185 274.4648 6061934 026.4374 354.5687 02.05869007180202 UO-11 1 14781U 84021B 07151.75686999 .00000016 00000-0 95007-5 0 3851 2 14781 098.1904 174.1423 0008155 219.1408 140.9233 14.79554248247307 RS-15 1 23439U 94085A 07150.86524895 -.00000039 00000-0 10597-3 0 00457 2 23439 064.8192 034.9317 0159774 193.8633 165.7875 11.27551716511749 FO-29 1 24278U 96046B 07151.86083263 .00000064 00000-0 98261-4 0 5130 2 24278 098.5506 113.7007 0351113 125.5113 237.9310 13.52930503532690 SO-33 1 25509U 98061B 07150.85866716 .00000223 00000-0 30319-4 0 09419 2 25509 031.4332 323.7094 0355406 275.9036 080.1191 14.28168151448779 AO-40 1 26609U 00072B 07150.82096956 -.00000007 00000-0 00000 0 0 8839 2 26609 005.4566 143.7083 7989271 322.4848 002.4008 01.25587026 30228 VO-52 1 28650U 05017B 07151.76235357 .00000242 00000-0 37631-4 0 6401 2 28650 097.8317 222.8457 0026357 309.1049 050.7861 14.81318661111983 PO-63 1 29712U 07001D 07151.81283212 .00000854 00000-0 12053-3 0 4110 2 29712 097.9221 211.1991 0014246 176.6068 183.5230 14.79705194 20919 AO-16 1 20439U 90005D 07150.89902804 .00000007 00000-0 17757-4 0 00488 2 20439 098.1945 146.4082 0009882 238.4008 121.6205 14.31760997906079 LO-19 1 20442U 90005G 07150.94038313 .00000050 00000-0 33869-4 0 09741 2 20442 098.1798 155.8221 0010823 236.5802 123.4331 14.32001872906224 AO-27 1 22825U 93061C 07150.90586782 -.00000017 00000-0 97977-5 0 06974 2 22825 098.3283 121.5411 0008113 320.8991 039.1605 14.29209532713028 IO-26 1 22826U 93061D 07151.44614137 .00000012 00000-0 20967-4 0 3932 2 22826 098.3226 123.1370 0008456 315.8103 044.2404 14.29455809713188 PO-28 1 22829U 93061G 07150.92058784 -.00000000 00000-0 15940-4 0 06720 2 22829 098.3105 123.8023 0008911 287.9457 072.0745 14.30155789713347 GO-32 1 25397U 98043D 07150.65347958 .00000040 00000-0 35984-4 0 03137 2 25397 098.4150 198.6336 0000404 322.4424 037.6729 14.23126221461661 MO-46 1 26548U 00057D 07150.72021553 .00000146 00000-0 35718-4 0 08083 2 26548 064.5570 236.6998 0017578 199.3067 160.7382 14.83144121360959 NO-44 1 26931U 01043C 07150.59686051 -.00000117 00000-0 -13344-4 0 06001 2 26931 067.0518 192.8009 0007535 267.7304 092.2933 14.29485082295588 SO-50 1 27607U 02058C 07150.92628245 .00000127 00000-0 42092-4 0 03252 2 27607 064.5557 137.4407 0051857 004.7774 355.3819 14.71261860238583 CO-55 1 27844U 03031E 07151.05869781 .00000074 00000-0 54761-4 0 393 2 27844 098.7172 159.5947 0010378 136.3304 223.8696 14.20513746203048 CO-57 1 27848U 03031J 07150.93618987 .00000056 00000-0 46545-4 0 00002 2 27848 098.7174 158.6760 0010156 139.6828 220.5101 14.20332361203001 AO-51 1 28375U 04025K 07150.71746621 .00000028 00000-0 21387-4 0 08290 2 28375 098.1135 190.9352 0082973 235.6751 123.6571 14.40568622153205 CO-56 1 28941U 06005C 07150.64717072 .00017978 25200-5 18980-3 0 04576 2 28941 098.1306 209.7905 0225721 335.5710 023.4846 15.39535551070734 HO-59 1 29484U 06041F 07151.59022734 .00027253 27912-5 19251-3 0 3714 2 29484 098.2848 198.8481 0209140 325.8427 032.9449 15.50518961 38502 NO-60 1 29661U 06055C 07150.05824307 .13324117 12618-4 10400-3 0 3000 2 29661 051.6186 176.5045 0007204 190.7749 188.7342 16.52052832 25544 NO-61 1 29664U 06055F 07150.90351439 .00020569 11273-4 75576-4 0 01985 2 29664 051.6338 183.4515 0011838 284.6590 075.3106 15.90559939025405 CP4 1 31122U 07012F 07151.68406620 .00000599 00000-0 14251-3 0 478 2 31122 098.0846 225.4935 0087191 076.8542 284.1991 14.55006898 6459 CP3 1 31128U 07012M 07150.74707939 -.00000046 00000-0 00000-0 0 00424 2 31128 098.0820 224.3718 0104130 079.9185 281.3754 14.51835995006296 LIBERT 1 31129U 07012N 07151.77829019 .00000386 00000-0 10000-3 0 1154 2 31129 098.0818 225.3667 0103757 076.5546 284.7175 14.51925335 6423 NOAA-10 1 16969U 86073A 07150.63769010 .00000101 00000-0 59407-4 0 06763 2 16969 098.7453 167.8095 0011660 216.0687 143.9692 14.27326347076724 NOAA-11 1 19531U 88089A 07151.30054487 .00000204 00000-0 12831-3 0 6729 2 19531 098.8112 240.6729 0012517 079.7722 280.4897 14.14846862963763 NOAA-12 1 21263U 91032A 07150.89627046 .00000136 00000-0 76323-4 0 01687 2 21263 098.7503 148.1656 0013169 153.4763 206.7086 14.25529715833787 MET-3/5 1 21655U 91056A 07150.92728700 .00000051 00000-0 10000-3 0 02766 2 21655 082.5530 015.1373 0011985 252.9351 107.0458 13.17011306759138 MET-2/21 1 22782U 93055A 07150.86876924 .00000004 00000-0 -10003-4 0 08381 2 22782 082.5495 055.6542 0020910 286.5399 073.3464 13.83616066694126 OKEAN-4 1 23317U 94066A 07150.83401537 .00000329 00000-0 37992-4 0 02761 2 23317 082.5369 312.7241 0021008 313.6531 046.2934 14.82506626681489 NOAA-14 1 23455U 94089A 07150.95200436 .00000201 00000-0 13009-3 0 06515 2 23455 098.9898 217.0439 0010170 144.8601 215.3246 14.13720557640201 SICH-1 1 23657U 95046A 07150.79526691 .00000068 00000-0 56258-5 0 00799 2 23657 082.5273 093.7005 0022636 303.7052 056.2022 14.81486755633452 NOAA-15 1 25338U 98030A 07151.80752209 .00000119 00000-0 51244-4 0 147 2 25338 098.5301 148.9532 0011756 077.6883 282.6089 14.24644353470361 RESURS 1 25394U 98043A 07150.78445659 .00000006 00000-0 20679-4 0 6528 2 25394 098.4409 206.0019 0000489 230.6854 129.4282 14.24136899461877 FENGYUN1 1 25730U 99025A 07151.71559266 .00000577 00000-0 36649-3 0 1281 2 25730 098.6871 136.2078 0020816 170.4933 189.6604 14.07507143415151 OKEAN-0 1 25860U 99039A 07150.91521062 .00000093 00000-0 21501-4 0 00660 2 25860 097.7299 153.9721 0001995 072.6827 287.4602 14.73454999422956 NOAA-16 1 26536U 00055A 07150.90501558 .00000301 00000-0 18803-3 0 04259 2 26536 099.1139 127.5464 0009919 218.5424 141.5019 14.12431122344664 NOAA-17 1 27453U 02032A 07150.95116601 .00000040 00000-0 36135-4 0 04373 2 27453 098.5804 220.6655 0012619 140.8698 219.3410 14.23881892256265 NOAA-18 1 28654U 05018A 07150.95178394 .00000170 00000-0 11877-3 0 09702 2 28654 098.8273 092.5234 0013861 321.1618 038.8558 14.11068255104421 HUBBLE 1 20580U 90037B 07150.77813779 .00000477 00000-0 24232-4 0 8866 2 20580 028.4691 303.6406 0003578 269.6384 090.3794 15.00245448737349 UARS 1 21701U 91063B 07150.97582338 .00003952 00000-0 69814-4 0 00923 2 21701 056.9766 028.6268 0096537 155.6754 204.8905 15.48051761863088 PO-34 1 25520U 98064B 07150.54412151 .00000510 00000-0 15437-4 0 07535 2 25520 028.4600 226.8323 0005274 069.1428 290.9729 15.17001396474848 ISS 1 25544U 98067A 07151.77340713 .00000008 00000-0 46596-7 0 3096 2 25544 051.6319 188.7310 0007920 261.8727 098.1920 15.78061975488183 OO-38 1 26063U 00004C 07150.74820831 -.00000008 00000-0 17648-4 0 09233 2 26063 100.2267 150.1493 0036551 208.4515 151.4651 14.35806483384555 UWE-1 1 28892U 05043C 07150.72965570 .00000088 00000-0 28227-4 0 07602 2 28892 098.1338 047.7188 0017497 163.5033 196.6747 14.59506646084667 CO-58 1 28895U 05043F 07150.70889146 .00000095 00000-0 29596-4 0 07403 2 28895 098.1382 047.9041 0018008 163.4453 196.7360 14.59554492084544 NCUBE2 1 28897U 05043H 07150.64854644 .00000176 00000-0 46586-4 0 02664 2 28897 098.1338 047.8027 0017115 165.5096 194.6621 14.59716887076810 NMARS 1 29662U 06055D 07126.39603970 .07031946 12599-4 11450-3 0 2632 2 29662 051.6121 302.3682 0004459 252.1654 110.7411 16.47981436 21652 FCAL 1 29667U 06055J 07150.58093793 .00012940 00000-0 50010-4 0 01621 2 29667 051.6364 186.5902 0013472 278.9689 080.9791 15.87596270025207 FALCON 1 30776U 07006E 07151.84307726 .00000315 00000-0 26215-4 0 638 2 30776 035.4350 311.7423 0002101 322.4104 037.6465 15.02713074 12594 MAST 1 31126U 07012K 07150.77091565 .00000395 00000-0 10000-3 0 00459 2 31126 098.0837 224.4972 0095978 079.5160 281.6808 14.53343297006321 CAPE1 1 31130U 07012P 07150.88439963 -.00000035 00000-0 26599-5 0 324 2 31130 098.0843 224.5048 0104075 079.5549 281.7338 14.51853960 6104 /EX
participants (1)
-
Ray Hoad